Location: Newark
(55.2875°N, 3.1864°W)
Time: 10:31:59
(UTC+00:00)

ISS - Pass Details

Date: 28 January 2020
Orbit: 415 x 423 km, 51.6° (Epoch: 27 February)

Event Time Altitude Azimuth Distance (km) Brightness Sun altitude
Rises 18:58:03 0° 257° (WSW) 2,380 1.6 -19.4°
Reaches altitude 10° 19:00:12 10° 251° (WSW) 1,514 0.2 -19.7°
Maximum altitude 19:03:28 45° 178° (S) 590 -3.1 -20.2°
Enters shadow 19:03:29 45° 177° (S) 590 -3.1 -20.2°
